Find Starlink 30822

NORAD ID: 58193 Int'l Des: 2023-167 Owner: SPXS Country: US Constellation: starlink operational
LEOCIRCULAR

現在のビュー

3D地球を読み込み中...

About Starlink 30822

Starlink 30822 (NORAD 58193) is a starlink constellation satellite (v2 mini) launched Oct 30, 2023 by SPXS of US. It operates in LEO, CIRCULAR orbit with a mass of 730.00 kg.

Starlink 30822について

説明を読み込み中...

次回通過

Passes for default location (London). Set your location on the main map for personalized predictions.

高度履歴

Loading altitude history...

軌道要素

1 58193U 23167U 26170.31124808 -.00002497 00000-0 -81230-4 0 9990
2 58193 43.0032 289.7626 0001614 277.3050 82.7618 15.27581362146526
Epoch: Jun 19, 2026 • Age: 8 hours

現在のステータス

高度 484.3 km
速度 7.63 km/s
衛星直下点 28.51°N, 74.13°W
打ち上げ日 Oct 30, 2023
運用期間 2.6 years
タイプ internet

技術仕様

分類 Payload
質量 730.00 kg
乾燥質量 700.00 kg
総質量 730.00 kg
長さ 0.30 m
直径 4.10 m
スパン 29.00 m
形状 Box + pan
製造者 SPXS
バスタイプ Starlink V2M
フェーズステータス In Orbit
所有者/国 SPXS/US

Most Searched